Meteo Giornale » Osservazioni meteo Stati Uniti (USA) » Hugo
ore: 11:50 - Osservazioni Meteo Hugo
Lat. 34° 2' N Lon. 95° 33' W Alt. 144 metri s.l.m.
34 °C
Sereno
Temp. 24 Ore
24 °C
38 °C
Sud
7.4 Km/h
Dew point 18 °C
Umidità 38 %
Visibilità 10 Km
Il sole sorge alle ore 06:55
Il sole tramonta alle ore 19:49
| Data e Ora | Cielo e Fenomeni | T °C | DP °C | Um. % | Pres. hPa | Vis. km | Vento km/h | |
|---|---|---|---|---|---|---|---|---|
| Oggi h: 11:50 | Sereno | 34 | 18 | 38 | 1018 | 10 | S 7.4 | |
| Oggi h: 11:30 | Sereno | 33 | 18 | 41 | 1018 | 10 | N 0 | |
| Oggi h: 11:10 | Sereno | 33 | 19 | 43 | 1018 | 10 | N 0 | |
| Oggi h: 10:50 | Sereno | 32 | 19 | 46 | 1018 | 10 | N 5.5 | |
| Oggi h: 10:30 | Sereno | 32 | 20 | 49 | 1018 | 10 | S 7.4 | |
| Oggi h: 10:10 | Sereno | 31 | 20 | 52 | 1018 | 10 | N 0 | |
| Oggi h: 09:50 | Sereno | 30 | 20 | 55 | 1018 | 10 | N 0 | |
| Oggi h: 09:30 | Sereno | 30 | 19 | 51 | 1018 | 10 | N 0 | |
| Oggi h: 09:10 | Sereno | 29 | 20 | 58 | 1018 | 10 | N 0 | |
| Oggi h: 08:50 | Sereno | 27 | 20 | 65 | 1018 | 10 | N 0 | |
| Oggi h: 08:30 | Nuvoloso | 26 | 19 | 65 | 1017 | 10 | N 0 | |
| Oggi h: 08:10 | Nuvoloso | 26 | 19 | 65 | 1017 | 10 | N 0 | |
| Oggi h: 07:50 | Nuvoloso | 25 | 19 | 69 | 1017 | 10 | N 0 | |
| Oggi h: 07:30 | Molto Nuvoloso | 25 | 18 | 65 | 1016 | 10 | N 0 | |
| Oggi h: 07:10 | Coperto | 24 | 18 | 69 | 1016 | 10 | N 5.5 | |
| Oggi h: 06:50 | Molto Nuvoloso | 25 | 18 | 65 | 1016 | 10 | N 0 | |
| Oggi h: 06:30 | Molto Nuvoloso | 25 | 18 | 65 | 1016 | 10 | N 5.5 | |
| Oggi h: 06:10 | Nuvoloso | 25 | 18 | 65 | 1016 | 10 | N 5.5 | |
| Oggi h: 05:50 | Nuvoloso | 25 | 18 | 65 | 1015 | 10 | N 0 | |
| Oggi h: 05:30 | Nuvoloso | 26 | 18 | 61 | 1015 | 10 | N 0 | |
| Oggi h: 05:10 | Nuvoloso | 26 | 18 | 61 | 1015 | 10 | N 0 | |
| Oggi h: 04:50 | Molto Nuvoloso | 26 | 18 | 61 | 1015 | 10 | N 5.5 | |
| Oggi h: 04:30 | Molto Nuvoloso | 27 | 18 | 57 | 1015 | 10 | SE 7.4 | |
| Oggi h: 04:10 | Molto Nuvoloso | 27 | 18 | 57 | 1015 | 10 | SE 7.4 | |
| Oggi h: 03:50 | Coperto | 27 | 18 | 57 | 1015 | 10 | S/SE 7.4 | |
| Oggi h: 03:30 | Molto Nuvoloso | 28 | 18 | 54 | 1015 | 10 | S/SE 11.1 | |
| Oggi h: 03:10 | Nuvoloso | 28 | 18 | 54 | 1015 | 10 | S/SE 11.1 | |
| Oggi h: 02:50 | Sereno | 28 | 18 | 54 | 1015 | 10 | S 13 | |
| Oggi h: 02:30 | Sereno | 28 | 18 | 54 | 1015 | 10 | S/SE 14.8 | |
| Oggi h: 02:10 | Sereno | 28 | 18 | 54 | 1015 | 10 | S 14.8 | |
| Oggi h: 01:50 | Nuvoloso | 28 | 18 | 54 | 1015 | 10 | S/SE 14.8 | |
| Oggi h: 01:30 | Nuvoloso | 28 | 17 | 51 | 1015 | 10 | S 11.1 | |
| Oggi h: 01:10 | Nuvoloso | 28 | 17 | 51 | 1015 | 10 | S/SE 11.1 | |
| Oggi h: 00:50 | Nuvoloso | 28 | 17 | 51 | 1015 | 10 | S/SE 13 | |
| Oggi h: 00:30 | Sereno | 29 | 17 | 48 | 1015 | 10 | S/SE 11.1 | |
| Oggi h: 00:10 | Nuvoloso | 29 | 17 | 48 | 1015 | 10 | S/SE 13 | |
| Ieri h: 23:50 | Nuvoloso | 29 | 17 | 48 | 1015 | 10 | S/SE 11.1 | |
| Ieri h: 23:30 | Sereno | 29 | 17 | 48 | 1015 | 10 | S/SE 9.3 | |
| Ieri h: 23:10 | Sereno | 30 | 17 | 45 | 1014 | 10 | S/SE 13 | |
| Ieri h: 22:50 | Nuvoloso | 30 | 17 | 45 | 1014 | 10 | SE 13 | |
| Ieri h: 22:30 | Nuvoloso | 31 | 17 | 43 | 1014 | 10 | S/SE 9.3 | |
| Ieri h: 22:10 | Sereno | 31 | 17 | 43 | 1014 | 10 | SE 11.1 | |
| Ieri h: 21:50 | Sereno | 31 | 16 | 40 | 1014 | 10 | E/SE 11.1 | |
| Ieri h: 21:30 | Sereno | 31 | 16 | 40 | 1014 | 10 | N 5.5 | |
| Ieri h: 21:10 | Sereno | 31 | 16 | 40 | 1014 | 10 | N 5.5 | |
| Ieri h: 20:50 | Sereno | 31 | 16 | 40 | 1013 | 10 | S/SE 7.4 | |
| Ieri h: 20:30 | Sereno | 32 | 16 | 38 | 1013 | 10 | S/SE 7.4 | |
| Ieri h: 20:10 | Sereno | 32 | 16 | 38 | 1013 | 10 | N 5.5 | |
| Ieri h: 19:50 | Sereno | 33 | 16 | 36 | 1012 | 10 | N 5.5 | |
| Ieri h: 19:30 | Sereno | 35 | 16 | 32 | 1012 | 10 | N 5.5 | |
| Ieri h: 19:10 | Sereno | 36 | 15 | 28 | 1012 | 10 | S/SE 11.1 | |
| Ieri h: 18:50 | Sereno | 37 | 15 | 27 | 1013 | 10 | N 5.5 | |
| Ieri h: 18:30 | Nuvoloso | 37 | 15 | 27 | 1013 | 10 | SO 7.4 | |
| Ieri h: 18:10 | Molto Nuvoloso | 37 | 15 | 27 | 1013 | 10 | SO 13 | |
| Ieri h: 17:50 | Nuvoloso | 38 | 15 | 25 | 1012 | 10 | O/SO 9.3 | |
| Ieri h: 17:30 | Sereno | 38 | 15 | 25 | 1012 | 10 | N 0 | |
| Ieri h: 17:10 | Sereno | 37 | 16 | 28 | 1013 | 10 | SE 7.4 | |
| Ieri h: 16:50 | Sereno | 37 | 16 | 28 | 1013 | 10 | S/SE 9.3 | |
| Ieri h: 16:30 | Nuvoloso | 38 | 16 | 27 | 1013 | 10 | S/SE 18.5 | |
| Ieri h: 16:10 | Molto Nuvoloso | 38 | 16 | 27 | 1013 | 10 | S 13 | |
| Ieri h: 15:50 | Nuvoloso | 38 | 16 | 27 | 1014 | 10 | O/SO 13 | |
| Ieri h: 15:30 | Sereno | 38 | 16 | 27 | 1014 | 10 | SO 13 | |
| Ieri h: 15:10 | Nuvoloso | 36 | 16 | 30 | 1014 | 10 | S 16.7 | |
| Ieri h: 14:50 | Molto Nuvoloso | 37 | 16 | 28 | 1014 | 10 | SO 13 | |
| Ieri h: 14:30 | Sereno | 37 | 17 | 30 | 1015 | 10 | SO 7.4 | |
| Ieri h: 14:10 | Nuvoloso | 37 | 16 | 28 | 1015 | 10 | S 13 | |
| Ieri h: 13:50 | Nuvoloso | 37 | 16 | 28 | 1015 | 10 | S 11.1 | |
| Ieri h: 13:30 | Sereno | 36 | 18 | 34 | 1015 | 10 | O 9.3 | |
| Ieri h: 13:10 | Sereno | 36 | 18 | 34 | 1016 | 10 | S 14.8 | |
| Ieri h: 12:50 | Sereno | 35 | 19 | 39 | 1016 | 10 | N 5.5 | |



